Alexandria, LA

9:49 AM CST on February 20, 2017 (GMT -0600)
Alexandria International

Weather History for KAEX - January, 2008

Change the Weather History Date:

Sunday, January 27, 2008

  Actual Average Record
Temperature  
Mean Temperature 44 °F 49 °F  
Max Temperature 52 °F 60 °F 82 °F (1903)
Min Temperature 36 °F 38 °F 8 °F (1940)
Degree Days  
Heating Degree Days 21 16  
Month to date heating degree days 449 432  
Since 1 July heating degree days 1036 1221  
Moisture  
Dew Point 38 °F    
Average Humidity 83    
Maximum Humidity 93    
Minimum Humidity 69    
Precipitation  
Precipitation 0.00 in 0.20 in 4.75 in (1994)
Month to date precipitation 3.83 4.39  
Year to date precipitation 3.83 4.39  
Snow  
Snow 0.00 in - T in (1948)
Month to date snowfall T  
Since 1 July snowfall T  
Snow Depth 0.00 in    
Sea Level Pressure  
Sea Level Pressure 30.32 in    
Wind  
Wind Speed 4 mph (North)    
Max Wind Speed 7 mph    
Max Gust Speed -    
Visibility 7 miles    
Events      
T = Trace of Precipitation, MM = Missing Value Source: NWS Daily Summary

Daily Weather History Graph

Daily Weather History Graph

Search for Another Location

Airport or City:

Trip Planner

Search our weather history database for the weather conditions in past years. The results will help you decide how hot, cold, wet, or windy it might be!

Date:

Astronomy

Jan. 27, 2008 Rise Set
Actual Time 7:05 AM CST 5:40 PM CST
Civil Twilight 6:40 AM CST 6:06 PM CST
Nautical Twilight 6:10 AM CST 6:35 PM CST
Astronomical Twilight 5:41 AM CST 7:04 PM CST
Moon 10:58 PM CST (1/27) 9:55 AM CST (1/27)
Length of Visible Light 11h 25m
Length of Day
10h 34m
Waning Gibbous, 73% of the Moon is Illuminated
Jan 27
Waning Gibbous
Jan 29
Last Quarter
Feb 6
New
Feb 13
First Quarter
Feb 20
Full

Hourly Weather History & Observations

Time (CST) Temp. Windchill Dew Point Humidity Pressure Visibility Wind Dir Wind Speed Gust Speed Precip Events Conditions
12:53 AM 42.1 °F 38.4 °F 37.9 °F 85% 30.30 in 6.0 mi North 5.8 mph - N/A   Overcast
1:38 AM 42.8 °F 39.3 °F 37.4 °F 81% 30.30 in 4.0 mi NW 5.8 mph - N/A   Overcast
1:53 AM 42.1 °F 39.2 °F 39.0 °F 89% 30.31 in 4.0 mi NW 4.6 mph - N/A   Overcast
2:53 AM 42.1 °F 37.7 °F 39.0 °F 89% 30.31 in 4.0 mi NNW 6.9 mph - N/A   Overcast
3:53 AM 41.0 °F 36.4 °F 37.9 °F 89% 30.32 in 4.0 mi NNW 6.9 mph - N/A   Overcast
4:53 AM 41.0 °F 39.0 °F 37.9 °F 89% 30.33 in 4.0 mi NNE 3.5 mph - N/A   Overcast
5:53 AM 39.9 °F 36.7 °F 37.9 °F 93% 30.34 in 4.0 mi Variable 4.6 mph - N/A   Overcast
6:53 AM 39.9 °F 35.1 °F 37.0 °F 89% 30.36 in 5.0 mi North 6.9 mph - N/A   Overcast
7:53 AM 39.9 °F 37.8 °F 37.0 °F 89% 30.37 in 4.0 mi NNW 3.5 mph - N/A   Overcast
8:53 AM 39.9 °F 37.8 °F 37.0 °F 89% 30.38 in 4.0 mi NW 3.5 mph - N/A   Overcast
9:53 AM 39.9 °F - 37.0 °F 89% 30.40 in 5.0 mi Calm Calm - N/A   Overcast
10:53 AM 42.1 °F 40.2 °F 37.0 °F 82% 30.39 in 7.0 mi ENE 3.5 mph - N/A   Overcast
11:17 AM 42.8 °F - 37.4 °F 81% 30.36 in 9.0 mi Calm Calm - N/A   Overcast
11:53 AM 44.1 °F - 37.0 °F 76% 30.36 in 10.0 mi Calm Calm - N/A   Overcast
12:35 PM 44.6 °F 43.1 °F 37.4 °F 76% 30.32 in 10.0 mi NNW 3.5 mph - N/A   Overcast
12:53 PM 45.0 °F 43.5 °F 37.9 °F 76% 30.33 in 10.0 mi Variable 3.5 mph - N/A   Overcast
1:38 PM 46.4 °F 45.2 °F 39.2 °F 76% 30.29 in 10.0 mi West 3.5 mph - N/A   Scattered Clouds
1:53 PM 48.0 °F - 39.0 °F 71% 30.31 in 10.0 mi Calm Calm - N/A   Scattered Clouds
2:53 PM 50.0 °F - 41.0 °F 71% 30.30 in 10.0 mi West 6.9 mph - N/A   Clear
3:53 PM 51.1 °F - 42.1 °F 71% 30.30 in 10.0 mi Variable 3.5 mph - N/A   Clear
4:53 PM 52.0 °F - 42.1 °F 69% 30.29 in 10.0 mi Calm Calm - N/A   Clear
5:53 PM 48.9 °F - 43.0 °F 80% 30.28 in 10.0 mi Calm Calm - N/A   Clear
6:53 PM 45.0 °F - 39.9 °F 82% 30.28 in 10.0 mi Calm Calm - N/A   Clear
7:53 PM 39.9 °F 37.8 °F 37.0 °F 89% 30.28 in 7.0 mi ENE 3.5 mph - N/A   Clear
8:53 PM 42.1 °F - 39.0 °F 89% 30.29 in 7.0 mi Calm Calm - N/A   Clear
9:53 PM 39.9 °F 36.7 °F 37.0 °F 89% 30.28 in 6.0 mi ESE 4.6 mph - N/A   Clear
10:53 PM 39.0 °F - 36.0 °F 89% 30.30 in 4.0 mi Calm Calm - N/A   Clear
11:25 PM 37.4 °F 33.8 °F 35.6 °F 93% 30.26 in 4.0 mi SE 4.6 mph - N/A   Scattered Clouds
11:53 PM 37.0 °F 34.5 °F 34.0 °F 89% 30.27 in 4.0 mi East 3.5 mph - N/A   Partly Cloudy